NWK1672 YPPH-YMHB

Flight info

Callsign NWK1672
Flight time N/A
Altitude 35000
Route MEMUP Y87 TAPAX T134 VIBUX DCT OTGAB DCT 40S140E DCT URBEN Y557 MORGO
Aircraft A319/M-SDE3FGHIRWY/LB1

Departure

Time 2026-04-29 23:42
Airport Perth International Airport (YPPH)

Arrival

Time N/A
Airport Hobart International Airport (YMHB)
Time Latitude Longitude Altitude Speed Heading
2026-04-29 23:15 -31.94381 115.97081 66 ft 0 kts 106°
2026-04-29 23:32 -31.94377 115.97065 62 ft 4 kts 107°
2026-04-29 23:32 -31.94368 115.97035 60 ft 4 kts 117°
2026-04-29 23:32 -31.94353 115.97013 58 ft 4 kts 185°
2026-04-29 23:32 -31.94347 115.97014 60 ft 0 kts 206°
2026-04-29 23:34 -31.94351 115.97012 58 ft 2 kts 206°
2026-04-29 23:35 -31.94365 115.97002 61 ft 3 kts 214°
2026-04-29 23:35 -31.94375 115.96975 65 ft 4 kts 263°
2026-04-29 23:35 -31.94367 115.96937 66 ft 6 kts 285°
2026-04-29 23:35 -31.94359 115.96885 63 ft 7 kts 280°
2026-04-29 23:36 -31.94347 115.96822 58 ft 9 kts 286°
2026-04-29 23:36 -31.94365 115.96759 64 ft 10 kts 203°
2026-04-29 23:36 -31.94435 115.96744 61 ft 11 kts 189°
2026-04-29 23:36 -31.94514 115.96724 63 ft 12 kts 200°
2026-04-29 23:37 -31.94600 115.96692 63 ft 14 kts 195°
2026-04-29 23:37 -31.94696 115.96662 62 ft 15 kts 194°
2026-04-29 23:37 -31.94802 115.96634 66 ft 16 kts 193°
2026-04-29 23:37 -31.94915 115.96601 64 ft 18 kts 194°
2026-04-29 23:38 -31.95039 115.96565 62 ft 19 kts 193°
2026-04-29 23:38 -31.95171 115.96528 61 ft 20 kts 193°
2026-04-29 23:38 -31.95305 115.96485 65 ft 20 kts 199°
2026-04-29 23:38 -31.95435 115.96448 68 ft 19 kts 194°
2026-04-29 23:39 -31.95566 115.96409 71 ft 20 kts 194°
2026-04-29 23:39 -31.95697 115.96371 72 ft 19 kts 194°
2026-04-29 23:39 -31.95819 115.96335 71 ft 18 kts 194°
2026-04-29 23:39 -31.95912 115.96292 71 ft 14 kts 226°
2026-04-29 23:40 -31.95912 115.96193 70 ft 9 kts 287°
2026-04-29 23:40 -31.95895 115.96119 71 ft 10 kts 285°
2026-04-29 23:40 -31.95878 115.96046 72 ft 10 kts 288°
2026-04-29 23:40 -31.95818 115.95986 68 ft 13 kts 351°
2026-04-29 23:41 -31.95718 115.96013 64 ft 19 kts 15°
2026-04-29 23:41 -31.95358 115.96121 64 ft 91 kts 13°
2026-04-29 23:41 -31.94517 115.96365 62 ft 156 kts 13°
2026-04-29 23:41 -31.93356 115.96658 368 ft 176 kts 10°
2026-04-29 23:42 -31.92170 115.96978 1075 ft 174 kts 14°
2026-04-29 23:42 -31.91006 115.97329 1833 ft 172 kts 14°
2026-04-29 23:42 -31.89811 115.97692 2214 ft 185 kts 14°
2026-04-29 23:42 -31.88486 115.98091 2388 ft 208 kts 14°
2026-04-29 23:43 -31.87085 115.98742 2607 ft 226 kts 40°
2026-04-29 23:43 -31.86239 116.00292 2906 ft 241 kts 76°
2026-04-29 23:43 -31.85941 116.02320 3289 ft 261 kts 87°
2026-04-29 23:43 -31.85843 116.04477 4001 ft 268 kts 90°
2026-04-29 23:44 -31.85792 116.06688 4808 ft 273 kts 91°
2026-04-29 23:44 -31.85731 116.08940 5598 ft 278 kts 90°
2026-04-29 23:44 -31.85644 116.11229 6388 ft 282 kts 89°
2026-04-29 23:44 -31.85411 116.13542 7096 ft 288 kts 78°
2026-04-29 23:45 -31.84982 116.15867 7801 ft 294 kts 77°